Wind_Speed
5 6 6 5 5 5 6 6 6 7 8 8 8 8 8 8 8 7 8 8 9 9 10 10 11 11 11 12 12 12 12 12 12 13 13 13 14 15 15 16 17 18 19
6 6 6 6 6 7 7 7 7 8 7 8 8 8 8 8 8 8 8 9 10 11 11 11 12 12 12 13 13 13 13 14 13 13 14 14 15 16 17 18 18 19 19
8 7 8 7 7 8 8 8 8 8 8 8 8 8 8 8 8 9 9 10 11 12 11 12 13 13 14 14 14 14 14 14 14 15 15 16 17 17 18 18 19 19 19
9 9 10 9 9 9 9 9 9 9 9 9 9 9 10 10 10 10 11 12 12 12 13 13 14 15 15 14 15 15 16 15 16 16 16 17 18 18 19 19 19 19 19
11 11 11 11 11 10 10 11 11 11 11 11 11 12 12 12 12 12 13 13 13 14 14 15 16 16 16 16 16 17 17 17 17 17 17 17 18 19 19 19 19 20 20
13 13 12 12 12 12 12 12 12 12 12 13 13 13 13 13 14 14 14 15 15 15 16 17 17 17 17 17 18 18 18 18 18 18 18 18 19 19 19 19 20 20 21
15 15 14 14 14 13 14 14 13 14 14 14 14 15 15 15 16 16 16 16 17 17 17 18 18 19 19 19 18 19 19 18 19 19 19 20 21 21 20 20 20 21 21
17 17 17 17 16 16 16 15 15 15 15 15 15 16 16 17 17 18 19 19 19 19 19 19 20 20 20 20 20 20 20 20 20 21 21 22 22 23 23 22 22 22 22
19 19 19 19 19 18 18 18 17 17 16 17 17 18 18 18 19 19 19 19 19 20 20 20 21 20 21 21 22 22 22 22 22 22 23 23 23 24 25 25 24 23 23
21 21 21 21 21 21 21 20 20 20 19 18 18 19 20 20 20 21 21 21 21 21 21 22 22 22 23 23 23 23 24 24 24 23 24 24 25 25 26 25 24 24 24
24 24 23 23 24 24 24 23 23 22 21 20 20 21 22 22 23 22 23 23 23 23 23 23 24 24 24 25 25 25 25 26 26 25 25 26 27 27 27 26 26 26 26
27 26 26 26 27 27 26 26 25 25 23 22 23 23 23 24 24 24 25 25 25 26 26 25 26 26 26 27 27 27 27 27 27 27 27 27 28 28 28 27 27 27 27
30 29 29 28 29 29 29 28 27 26 25 25 25 24 24 24 25 26 27 27 27 27 27 27 28 28 29 28 28 29 29 28 28 28 28 28 28 29 28 28 29 29 29
32 31 30 31 31 31 31 29 29 28 28 28 27 26 26 26 27 27 28 29 29 29 29 29 29 30 30 30 30 30 30 30 30 30 29 29 29 29 29 29 30 30 30
34 33 32 33 33 32 32 31 30 30 30 29 28 28 28 28 28 29 30 30 31 31 31 31 31 31 31 31 31 31 31 31 31 30 30 30 30 30 29 30 30 30 31
35 34 34 35 34 33 32 31 31 30 30 30 30 31 31 30 31 31 32 32 32 33 33 33 33 33 33 32 32 32 33 33 32 32 31 30 30 29 29 29 29 30 31
36 35 35 34 34 33 33 33 33 32 32 32 32 33 33 34 33 34 34 34 34 34 35 35 35 36 34 33 33 33 34 33 33 32 31 31 30 29 29 30 30 30 31
36 35 36 36 36 35 35 35 35 35 34 34 34 35 35 35 35 36 36 36 35 35 36 37 36 36 36 35 35 34 34 34 33 33 32 32 31 31 31 31 31 31 31
35 36 36 36 36 36 36 36 37 36 36 36 36 37 37 37 37 38 37 37 37 37 37 37 37 37 36 36 35 35 35 35 34 33 33 32 31 31 31 32 32 31 32
35 36 36 35 35 36 37 37 37 36 37 38 38 38 39 38 37 38 38 39 39 38 38 37 37 36 36 36 36 35 35 34 33 32 31 31 31 31 32 32 32 31 31
35 35 35 35 35 36 37 37 36 36 36 37 37 38 38 38 37 38 39 39 39 39 38 38 36 36 35 36 35 34 34 33 32 31 30 30 31 31 32 31 31 30 30
34 35 35 35 35 36 36 37 37 37 36 36 37 37 37 37 38 38 39 39 40 40 39 38 37 37 36 35 34 33 32 32 31 30 30 31 31 31 31 30 30 29 29
33 33 33 34 35 36 36 36 36 36 36 35 36 37 37 38 39 38 38 38 38 38 38 38 36 36 35 34 33 33 32 31 30 30 31 31 30 30 29 29 28 28 28
33 33 33 34 34 35 35 35 36 36 35 36 37 38 37 37 37 36 36 36 36 36 36 36 36 35 34 33 32 32 31 30 30 30 30 30 29 28 27 27 27 27 27
33 33 33 34 34 35 35 35 35 35 35 36 37 38 37 36 36 36 36 36 35 35 35 34 33 32 32 32 31 31 31 31 30 29 29 28 28 27 27 26 26 26 27
33 33 34 34 34 34 35 35 35 36 36 36 37 37 37 36 36 36 36 35 34 34 34 33 32 31 31 31 31 31 30 30 29 28 28 27 27 27 27 26 26 26 26
Wind_Direction
321 326 329 332 334 334 336 336 329 317 312 312 312 312 316 318 318 316 316 314 315 317 319 319 317 316 315 315 318 320 320 318 317 318 317 315 312 309 310 307 305 303 303
302 308 314 316 318 321 322 322 323 321 320 319 315 314 314 315 315 313 312 313 312 314 316 316 315 314 312 312 312 312 314 316 316 315 315 313 311 308 309 308 306 304 303
290 296 301 302 307 312 315 315 315 315 317 320 324 320 319 319 314 309 309 312 312 313 313 312 313 313 311 310 309 309 311 312 313 312 313 312 311 311 311 308 307 307 304
283 287 293 296 298 303 307 309 312 312 316 317 316 316 316 313 311 310 309 310 310 311 312 313 313 314 313 310 308 308 308 308 309 310 312 313 311 310 310 309 308 307 306
279 282 286 289 290 292 298 302 308 312 314 313 312 311 311 311 308 306 304 306 308 309 310 311 312 313 312 310 308 307 305 305 305 307 309 312 313 311 309 310 309 309 308
275 276 277 282 285 288 292 296 301 304 305 308 309 309 308 308 308 306 304 304 306 306 306 308 310 311 310 310 309 307 306 305 304 304 305 308 310 309 308 309 310 309 307
274 275 277 281 284 287 291 295 297 297 298 300 303 305 305 305 307 305 303 304 304 305 304 306 307 308 308 308 309 308 307 306 303 302 303 304 306 306 306 307 308 308 308
273 273 276 278 282 284 287 291 294 293 294 298 298 300 302 301 301 302 301 301 301 303 304 304 305 308 309 306 305 306 305 304 303 301 301 303 303 303 304 304 305 306 307
273 273 274 276 278 282 285 288 289 289 289 292 294 295 297 299 299 300 301 301 300 301 301 302 303 304 307 307 304 302 303 303 301 300 299 301 302 301 302 302 301 303 304
271 274 273 272 274 277 279 282 284 286 286 286 290 292 293 294 296 298 298 297 297 298 297 298 300 301 301 303 304 301 300 300 301 300 299 299 300 300 301 302 301 301 302
269 272 273 273 273 274 276 278 280 283 284 285 288 289 290 292 294 295 297 296 297 298 296 295 297 296 296 298 300 300 299 298 298 298 299 299 298 299 299 300 300 300 300
266 269 272 273 274 275 276 277 279 282 283 285 288 288 291 291 291 293 295 296 296 296 296 295 296 295 294 295 296 296 296 298 298 298 300 300 299 299 298 298 298 299 300
265 267 268 272 274 275 276 277 278 281 283 283 285 286 288 291 292 293 294 294 295 296 296 295 295 294 293 293 293 294 295 296 297 298 298 298 298 297 296 296 296 297 297
263 265 267 269 272 273 273 275 277 280 282 283 283 284 286 289 290 291 292 293 293 293 293 294 293 293 292 292 292 293 294 295 297 298 297 298 298 297 296 295 294 295 297
263 265 266 268 269 271 274 276 275 277 279 280 280 282 285 288 289 290 291 292 293 293 292 293 294 293 292 291 291 293 294 295 296 296 296 296 296 296 296 295 295 295 296
262 264 267 267 269 270 272 274 276 277 278 281 283 284 284 286 288 291 292 293 293 292 293 293 293 291 290 290 290 292 293 293 294 293 294 294 294 295 295 295 295 296 296
261 263 266 267 268 269 270 271 273 276 279 280 282 283 285 285 286 288 290 292 293 293 294 293 293 291 290 291 290 292 293 291 291 291 291 293 293 293 294 295 295 296 297
261 263 265 266 268 268 269 271 272 274 277 279 281 282 283 284 285 287 288 290 292 293 294 294 294 293 291 289 290 291 291 291 290 290 290 290 291 292 293 294 295 296 296
262 263 264 266 267 267 268 271 273 275 277 278 280 281 283 284 284 287 288 289 291 292 293 294 294 294 291 290 290 291 290 290 289 290 290 289 290 291 293 295 296 296 295
262 263 264 265 266 267 269 271 273 274 276 277 279 281 283 285 285 286 288 289 289 291 292 292 293 292 290 290 290 291 290 289 288 289 289 290 290 291 293 295 296 296 296
262 263 265 265 266 268 269 271 274 276 277 278 280 282 283 284 284 285 287 288 289 290 291 291 292 292 290 289 290 290 289 288 287 287 288 289 290 291 293 294 296 296 296
262 263 264 265 266 267 269 272 274 276 276 277 280 282 283 284 285 286 288 289 289 289 289 290 291 292 291 289 289 290 290 288 286 286 286 289 290 292 293 295 295 296 298
262 264 265 266 267 267 269 271 272 273 275 277 280 282 283 284 285 285 287 288 289 290 290 290 290 290 289 287 287 288 287 286 286 287 287 288 289 291 292 294 296 297 298
263 265 266 267 267 269 270 272 273 275 276 277 280 282 283 284 284 285 287 288 289 289 290 290 289 288 287 284 284 286 286 285 286 286 287 287 288 289 291 295 296 297 298
263 266 267 267 269 270 272 273 275 276 277 278 280 282 283 284 284 286 287 287 288 288 290 290 288 287 286 285 284 285 285 285 285 285 286 287 287 288 290 293 295 297 298
264 265 267 268 270 271 273 274 275 277 277 278 279 281 283 283 284 287 287 286 286 288 290 290 288 287 286 284 284 285 285 284 284 285 286 286 287 287 289 291 294 295 297
Height
5888 5888 5887 5886 5886 5885 5884 5883 5882 5881 5880 5879 5878 5878 5877 5876 5874 5873 5872 5871 5870 5869 5868 5866 5865 5863 5862 5860 5859 5857 5855 5853 5851 5850 5848 5846 5844 5842 5840 5839 5837 5835 5833
5887 5886 5886 5885 5885 5884 5883 5882 5881 5879 5878 5878 5876 5876 5875 5874 5873 5872 5871 5870 5869 5867 5866 5864 5863 5861 5860 5858 5856 5855 5853 5851 5849 5847 5845 5843 5841 5839 5837 5835 5833 5831 5829
5885 5885 5884 5884 5884 5883 5882 5880 5879 5878 5877 5876 5875 5874 5873 5872 5871 5870 5869 5868 5866 5865 5864 5862 5861 5859 5857 5855 5854 5852 5850 5848 5846 5844 5842 5840 5838 5836 5834 5831 5829 5827 5825
5883 5883 5882 5882 5881 5881 5880 5879 5878 5877 5875 5874 5873 5872 5871 5870 5869 5867 5866 5865 5864 5863 5861 5860 5858 5856 5854 5852 5851 5849 5847 5845 5843 5841 5839 5836 5834 5832 5830 5827 5825 5822 5821
5880 5880 5880 5879 5879 5878 5877 5876 5875 5874 5873 5872 5871 5870 5869 5867 5866 5865 5864 5862 5861 5860 5859 5857 5855 5853 5851 5849 5847 5845 5843 5841 5839 5837 5835 5833 5830 5828 5825 5823 5820 5818 5816
5877 5876 5876 5876 5875 5875 5874 5874 5873 5872 5871 5870 5869 5867 5866 5865 5863 5862 5861 5859 5858 5857 5855 5853 5852 5850 5847 5845 5843 5841 5839 5837 5835 5833 5831 5829 5826 5824 5821 5819 5816 5814 5811
5873 5873 5872 5872 5872 5871 5871 5870 5869 5868 5868 5867 5866 5865 5863 5862 5860 5859 5857 5856 5854 5853 5851 5849 5847 5845 5843 5841 5839 5837 5835 5833 5831 5829 5827 5824 5822 5820 5817 5815 5812 5809 5806
5869 5869 5869 5868 5868 5867 5866 5866 5865 5865 5864 5863 5862 5861 5859 5858 5857 5855 5853 5852 5850 5848 5847 5845 5843 5841 5839 5837 5835 5833 5830 5828 5826 5824 5821 5819 5817 5814 5812 5810 5807 5804 5802
5864 5864 5864 5864 5863 5862 5862 5862 5861 5860 5859 5859 5857 5856 5855 5854 5852 5851 5849 5847 5846 5844 5842 5840 5838 5836 5834 5832 5830 5828 5825 5823 5820 5818 5816 5813 5811 5808 5806 5803 5801 5798 5796
5858 5858 5858 5858 5858 5857 5856 5856 5855 5855 5854 5853 5852 5851 5850 5849 5847 5846 5844 5842 5841 5839 5837 5835 5833 5831 5829 5826 5824 5822 5819 5817 5814 5812 5810 5807 5804 5802 5799 5797 5794 5792 5789
5851 5851 5852 5852 5851 5851 5850 5850 5849 5849 5848 5848 5846 5845 5844 5843 5842 5840 5838 5837 5835 5833 5831 5829 5827 5825 5822 5820 5818 5816 5813 5811 5808 5806 5803 5800 5798 5795 5792 5790 5787 5785 5782
5844 5844 5845 5844 5844 5844 5844 5843 5843 5842 5841 5841 5840 5839 5838 5837 5836 5834 5832 5830 5829 5827 5825 5822 5820 5818 5815 5813 5811 5809 5806 5804 5801 5799 5796 5793 5791 5788 5785 5782 5780 5777 5775
5836 5836 5836 5837 5836 5836 5836 5836 5836 5835 5834 5834 5833 5832 5831 5830 5829 5827 5826 5824 5821 5820 5817 5815 5813 5810 5808 5806 5803 5801 5799 5796 5794 5791 5788 5786 5783 5780 5777 5775 5772 5770 5767
5827 5828 5828 5828 5829 5828 5828 5828 5828 5827 5827 5826 5826 5825 5824 5823 5822 5820 5818 5816 5814 5812 5810 5807 5805 5803 5800 5798 5795 5793 5791 5788 5786 5783 5780 5778 5775 5772 5769 5767 5764 5761 5759
5818 5818 5818 5819 5820 5820 5819 5819 5819 5820 5819 5819 5818 5817 5816 5815 5814 5812 5810 5808 5806 5804 5801 5799 5797 5795 5792 5790 5787 5785 5782 5780 5777 5775 5772 5769 5766 5764 5761 5758 5755 5753 5750
5808 5809 5810 5810 5811 5811 5811 5810 5810 5810 5810 5810 5809 5808 5807 5806 5804 5803 5802 5799 5797 5794 5792 5790 5788 5785 5783 5781 5778 5776 5773 5771 5768 5766 5763 5760 5758 5755 5752 5750 5747 5744 5741
5798 5800 5800 5801 5801 5801 5801 5802 5802 5802 5801 5801 5800 5799 5798 5797 5795 5794 5792 5790 5788 5785 5782 5780 5778 5775 5773 5771 5768 5766 5764 5761 5759 5756 5754 5751 5749 5746 5744 5741 5738 5735 5732
5787 5789 5790 5790 5791 5791 5791 5792 5792 5792 5792 5791 5790 5789 5788 5787 5785 5783 5782 5780 5778 5775 5773 5770 5768 5765 5763 5760 5758 5756 5753 5751 5749 5746 5744 5742 5739 5737 5735 5732 5729 5726 5723
5776 5778 5778 5779 5780 5780 5781 5781 5781 5781 5781 5781 5780 5779 5777 5776 5775 5773 5771 5769 5767 5765 5762 5760 5757 5755 5752 5750 5747 5745 5743 5741 5739 5736 5734 5732 5730 5728 5725 5723 5720 5717 5714
5766 5767 5767 5768 5769 5770 5770 5770 5770 5770 5770 5770 5769 5768 5767 5765 5764 5763 5761 5758 5756 5754 5751 5749 5746 5744 5741 5739 5737 5735 5732 5730 5728 5727 5725 5723 5721 5718 5716 5713 5710 5708 5705
5755 5756 5757 5758 5758 5759 5759 5760 5760 5760 5759 5759 5758 5757 5756 5755 5753 5751 5749 5747 5745 5743 5740 5738 5735 5733 5731 5728 5726 5724 5722 5720 5718 5717 5715 5713 5711 5709 5706 5704 5701 5698 5695
5745 5746 5747 5747 5748 5749 5750 5750 5750 5749 5749 5748 5747 5746 5745 5743 5742 5740 5737 5735 5733 5731 5729 5726 5724 5722 5720 5718 5716 5714 5712 5710 5709 5707 5706 5704 5702 5699 5697 5694 5691 5689 5686
5735 5736 5736 5737 5738 5739 5739 5739 5739 5739 5738 5737 5736 5735 5734 5732 5730 5728 5726 5723 5721 5719 5717 5715 5713 5711 5709 5707 5705 5704 5702 5700 5699 5697 5696 5694 5692 5690 5687 5685 5682 5680 5678
5725 5726 5727 5728 5728 5729 5729 5729 5728 5728 5727 5726 5725 5724 5722 5720 5718 5716 5714 5712 5710 5708 5706 5704 5702 5699 5698 5696 5694 5693 5691 5690 5689 5688 5686 5685 5683 5681 5679 5676 5674 5672 5669
5715 5716 5717 5718 5718 5719 5718 5718 5717 5717 5716 5715 5714 5713 5711 5709 5707 5705 5703 5701 5699 5697 5695 5693 5691 5689 5687 5686 5685 5683 5682 5681 5679 5678 5676 5675 5673 5672 5670 5668 5666 5664 5662
5706 5707 5707 5708 5708 5708 5708 5707 5707 5706 5705 5704 5703 5702 5700 5698 5697 5695 5692 5690 5688 5686 5684 5682 5680 5679 5678 5676 5675 5674 5673 5671 5670 5669 5667 5666 5665 5663 5662 5660 5658 5656 5654